User: anonymous   Login
Location: Unspecified
(0.0000°N, 0.0000°E)
Time: 15:14:37
(UTC+00:00)
Language:

Fermi - Orbit

View from above orbital plane
View from above orbital plane
View from above satellite
View from above satellite

Ground track
Ground track

The orbit data is extracted from the following two-line orbital elements,

1 33053U 08029A   19233.35436789  .00000405  00000-0  63427-5 0  9992
2 33053  25.5836 350.7024 0012572 121.8428 238.3332 15.11242391617736
Epoch (UTC): 21 August 2019 08:30:17
Eccentricity: 0.0012572
inclination: 25.5836°
perigee height: 524 km
apogee height: 541 km
right ascension of ascending node: 350.7024°
argument of perigee: 121.8428°
revolutions per day: 15.11242391
mean anomaly at epoch: 238.3332°
orbit number at epoch: 61773

The dashed part of the orbit path shows where the satellite is in the earth's shadow,  

DLR